GW0774 Weather Reports


Display with metric or nautical units.
time (UTC)temp
F
wind
direction
speed
MPH
gust
MPH
rain 1hr
in
rain 24hr
in
rain mn
in
humidity
%
barometer
mb
20260502194546 47 124 0.0 1.0 0.00 0.00 0.00 95 1034.5
20260502194037 47 0 0.0 1.0 0.00 0.00 0.00 95 1034.5
20260502193539 47 166 0.0 1.0 0.00 0.00 0.00 95 1034.4
20260502193054 47 0 0.0 0.0 0.00 0.00 0.00 95 1034.4
20260502192539 47 0 0.0 0.0 0.00 0.00 0.00 95 1034.4
20260502192038 47 0 0.0 1.0 0.00 0.00 0.00 95 1034.4
20260502191553 46 0 0.0 1.0 0.00 0.00 0.00 95 1034.3
20260502191038 46 167 0.0 1.0 0.00 0.00 0.00 95 1034.3
20260502190538 46 0 0.0 1.0 0.00 0.00 0.00 95 1034.2
20260502190049 46 0 0.0 1.0 0.00 0.00 0.00 95 1034.3
20260502185538 46 0 0.0 0.0 0.00 0.00 0.00 94 1034.2
20260502185038 46 168 0.0 1.0 0.00 0.00 0.00 94 1034.2
20260502184551 46 0 0.0 1.0 0.00 0.00 0.00 95 1034.2
20260502184039 46 168 0.0 1.0 0.00 0.00 0.00 95 1034.2
20260502183539 46 0 0.0 2.0 0.00 0.00 0.00 94 1034.3
20260502183048 46 0 0.0 2.0 0.00 0.00 0.00 94 1034.3
20260502182538 46 218 0.0 2.0 0.00 0.00 0.00 95 1034.3
20260502182038 46 92 1.0 3.0 0.00 0.00 0.00 95 1034.3
20260502181552 45 92 1.0 3.0 0.00 0.00 0.00 95 1034.2
20260502181038 45 0 0.0 2.0 0.00 0.00 0.00 95 1034.2
20260502180538 45 91 1.0 2.0 0.00 0.00 0.00 95 1034.1
20260502164039 45 0 0.0 0.0 0.00 0.00 0.00 94 1034.0
20260502163539 45 0 0.0 0.0 0.00 0.00 0.00 94 1034.1
20260502163053 45 0 0.0 0.0 0.00 0.00 0.00 94 1034.1
20260502162539 45 0 0.0 3.0 0.00 0.00 0.00 94 1034.0
20260502162042 45 0 0.0 3.0 0.00 0.00 0.00 94 1034.1
20260502161546 45 89 1.0 3.0 0.00 0.00 0.00 94 1034.0
20260502161038 45 83 0.0 4.0 0.00 0.00 0.00 95 1034.0
20260502160539 45 0 0.0 4.0 0.00 0.00 0.00 95 1034.0
20260502152039 44 90 1.0 3.0 0.00 0.00 0.00 95 1034.2
20260502151557 44 109 1.0 3.0 0.00 0.00 0.00 95 1034.2
20260502151038 44 119 2.0 3.0 0.00 0.00 0.00 95 1034.3
20260502150538 44 0 1.0 3.0 0.00 0.00 0.00 95 1034.3
20260502130542 43 0 0.0 1.0 0.00 0.00 0.00 96 1034.4
20260502123543 42 0 0.0 0.0 0.00 0.00 0.00 95 1034.3
20260502123102 42 0 0.0 0.0 0.00 0.00 0.00 95 1034.2
20260502122539 42 0 0.0 0.0 0.00 0.00 0.00 96 1034.2
20260502122040 42 0 0.0 0.0 0.00 0.00 0.00 95 1034.2
20260502121549 42 0 0.0 0.0 0.00 0.00 0.00 95 1034.1
20260502121041 43 0 0.0 0.0 0.00 0.00 0.00 95 1034.1
20260502120539 43 0 0.0 0.0 0.00 0.00 0.00 95 1034.1
20260502115539 43 0 0.0 1.0 0.00 0.00 0.00 96 1033.9
20260502115039 43 0 0.0 1.0 0.00 0.00 0.00 96 1033.8
20260502114544 43 88 0.0 1.0 0.00 0.00 0.00 95 1033.8
20260502114039 43 88 0.0 1.0 0.00 0.00 0.00 94 1033.8
20260502113539 43 0 0.0 1.0 0.00 0.00 0.00 95 1033.8
20260502113053 43 88 0.0 1.0 0.00 0.00 0.00 96 1033.8
20260502112538 43 88 0.0 1.0 0.00 0.00 0.00 96 1033.7
20260502112035 43 88 0.0 1.0 0.00 0.00 0.00 95 1033.7
20260502111547 43 0 0.0 1.0 0.00 0.00 0.00 96 1033.7
20260502111038 43 0 0.0 1.0 0.00 0.00 0.00 95 1033.7
20260502110539 43 88 0.0 2.0 0.00 0.00 0.00 96 1033.7
20260502110053 42 88 0.0 2.0 0.00 0.00 0.00 94 1033.7
20260502105536 43 88 1.0 2.0 0.00 0.00 0.00 95 1033.7
20260502105036 43 88 1.0 1.0 0.00 0.00 0.00 95 1033.6
20260502104549 43 84 0.0 3.0 0.00 0.00 0.00 95 1033.6
20260502104038 43 81 1.0 3.0 0.00 0.00 0.00 95 1033.6
20260502103540 43 77 1.0 2.0 0.00 0.00 0.00 94 1033.7
20260502103045 43 71 1.0 2.0 0.00 0.00 0.00 95 1033.6
20260502102538 44 71 1.0 3.0 0.00 0.00 0.00 95 1033.7
20260502102038 44 76 1.0 3.0 0.00 0.00 0.00 95 1033.7
20260502101559 44 82 1.0 2.0 0.00 0.00 0.00 96 1033.7
20260502101037 44 72 0.0 1.0 0.00 0.00 0.00 95 1033.8
20260502100538 43 0 0.0 1.0 0.00 0.00 0.00 95 1033.7
20260502100113 44 0 0.0 1.0 0.00 0.00 0.00 95 1033.7
20260502091041 44 69 1.0 2.0 0.00 0.00 0.00 95 1033.2
20260502090538 44 0 0.0 2.0 0.00 0.00 0.00 94 1033.2
20260502090528 44 0 0.0 3.0 0.00 0.00 0.00 94 1033.2
20260502010046 61 265 4.0 10.0 0.00 0.00 0.00 66 1033.4
20260502005540 61 299 6.0 13.0 0.00 0.00 0.00 67 1033.7
20260502005039 61 232 5.0 13.0 0.00 0.00 0.00 69 1033.6
20260502004558 61 266 6.0 11.0 0.00 0.00 0.00 70 1033.6
20260502004039 61 245 5.0 11.0 0.00 0.00 0.00 70 1033.6
20260502003539 61 292 6.0 11.0 0.00 0.00 0.00 68 1033.6
20260502003042 61 236 5.0 9.0 0.00 0.00 0.00 71 1033.7
20260502002538 61 282 5.0 9.0 0.00 0.00 0.00 69 1033.6
20260502002038 61 247 5.0 9.0 0.00 0.00 0.00 69 1033.9
20260502001546 61 234 3.0 9.0 0.00 0.00 0.00 72 1034.0
20260502001040 60 254 4.0 8.0 0.00 0.00 0.00 72 1034.2
20260502000536 60 242 4.0 9.0 0.00 0.00 0.00 71 1034.1
20260502000048 60 240 5.0 9.0 0.00 0.00 0.00 69 1034.1
20260501235539 60 244 3.0 10.0 0.00 0.00 0.00 75 1034.2
20260501235039 60 223 5.0 10.0 0.00 0.00 0.00 74 1034.2
20260501234549 60 297 5.0 8.0 0.00 0.00 0.00 73 1034.3
20260501234042 59 237 2.0 8.0 0.00 0.00 0.00 74 1034.3
20260501233539 59 238 5.0 8.0 0.00 0.00 0.00 73 1034.3
20260501233043 59 284 4.0 8.0 0.00 0.00 0.00 76 1034.3
20260501232543 59 269 3.0 8.0 0.00 0.00 0.00 76 1034.5
20260501232038 58 225 4.0 10.0 0.00 0.00 0.00 76 1034.6
20260501231554 58 230 4.0 10.0 0.00 0.00 0.00 76 1034.6
20260501231041 58 236 3.0 7.0 0.00 0.00 0.00 78 1034.7
20260501230538 57 321 0.0 7.0 0.00 0.00 0.00 81 1034.7
20260501230057 57 265 2.0 7.0 0.00 0.00 0.00 80 1034.7
20260501225539 56 245 1.0 3.0 0.00 0.00 0.00 82 1034.7
20260501225039 56 244 1.0 4.0 0.00 0.00 0.00 81 1034.7
20260501224547 55 240 2.0 4.0 0.00 0.00 0.00 81 1034.8
20260501224039 55 333 2.0 4.0 0.00 0.00 0.00 81 1034.7
20260501223539 54 257 2.0 4.0 0.00 0.00 0.00 82 1034.7
20260501223053 54 240 1.0 4.0 0.00 0.00 0.00 82 1034.7
20260501222539 53 240 2.0 4.0 0.00 0.00 0.00 82 1034.8
20260501222039 53 241 1.0 4.0 0.00 0.00 0.00 82 1034.8
20260501221555 53 242 2.0 4.0 0.00 0.00 0.00 83 1034.8
20260501221046 52 236 1.0 3.0 0.00 0.00 0.00 84 1034.8
20260501220542 52 236 0.0 3.0 0.00 0.00 0.00 85 1034.8
20260501220055 52 236 2.0 3.0 0.00 0.00 0.00 83 1034.8
20260501215543 53 0 0.0 1.0 0.00 0.00 0.00 85 1034.8
20260501215039 53 93 0.0 1.0 0.00 0.00 0.00 85 1034.8
20260501214555 52 0 0.0 1.0 0.00 0.00 0.00 88 1034.8
20260501214039 51 0 0.0 1.0 0.00 0.00 0.00 89 1034.9
20260501213539 51 93 0.0 1.0 0.00 0.00 0.00 90 1034.9
20260501213047 50 0 0.0 1.0 0.00 0.00 0.00 91 1034.9
20260501212539 50 0 0.0 1.0 0.00 0.00 0.00 93 1034.8
20260501212039 49 93 0.0 1.0 0.00 0.00 0.00 94 1035.0
20260501211558 49 0 0.0 1.0 0.00 0.00 0.00 95 1035.0
20260501211040 48 86 0.0 1.0 0.00 0.00 0.00 95 1035.1
20260501210540 48 0 0.0 1.0 0.00 0.00 0.00 96 1035.2
20260501210048 47 0 0.0 1.0 0.00 0.00 0.00 96 1035.3
20260501205539 46 0 0.0 1.0 0.00 0.00 0.00 97 1035.3
20260501205039 46 82 0.0 1.0 0.00 0.00 0.00 98 1035.3
20260501204629 46 0 0.0 0.0 0.00 0.00 0.00 98 1035.3
20260501204039 45 0 0.0 0.0 0.00 0.00 0.00 98 1035.3
20260501203538 44 0 0.0 0.0 0.00 0.00 0.00 98 1035.3
20260501203050 44 0 0.0 0.0 0.00 0.00 0.00 98 1035.3
20260501202539 43 0 0.0 0.0 0.00 0.00 0.00 98 1035.3
20260501202039 42 0 0.0 0.0 0.00 0.00 0.00 98 1035.3
20260501201550 40 0 0.0 1.0 0.00 0.00 0.00 98 1035.2
20260501201041 39 0 0.0 1.0 0.00 0.00 0.00 97 1035.2
20260501200539 38 82 0.0 2.0 0.00 0.00 0.00 97 1035.0
20260501200047 37 0 0.0 2.0 0.00 0.00 0.00 97 1034.9
20260501195539 37 0 0.0 2.0 0.00 0.00 0.00 97 1035.0
20260501195039 36 0 0.0 0.0 0.00 0.00 0.00 97 1034.9